Flag for Canada Weather past 2 weeks in Drummondville, Quebec, Canada

Now
8 °F

Frigid.


Feels Like: -7 °F
Forecast: 1 / 11 °F
Wind: 10 mph from North

Location: Nicolet

Current Time: Jan 27, 2015 at 9:24:59 PM

Latest Report: Jan 27, 2015 at 8:00 PM


Visibility: N/A

Pressure: 30.03 "Hg

Humidity: 51%

Dew point: -7 °F

Location of DrummondvilleLocation

Historic Weather in Drummondville — Graph

°F

Drummondville temperature yesterday

Maximum temperature yesterday: 5 °F (at 3:00 PM)
Minimum temperature yesterday: -16 °F (at 7:00 AM)
Average temperature yesterday: -2 °F

Past Weeks' High & Low Weather Summary

 TemperatureHumidityPressure
High33 °F (Jan 19, 12:00 PM)100% (Jan 19, 5:00 AM)30.82 "Hg (Jan 19, 5:00 AM)
Low-21 °F (Jan 14, 7:00 AM)47% (Jan 17, 2:00 PM)29.23 "Hg (Jan 25, 12:00 AM)
Average6 °F74%30.04 "Hg
* Reported Jan 12 8:00 PM — Jan 27 8:00 PM, Drummondville, Weather by CustomWeather, © 2014

Note: Actual official high and low records may vary slightly from our data, if they occured in-between our weather recording intervals... More about our weather records

Advertising

Drummondville weather history for previous 24 hours

 ConditionsComfort  
Time TempWeatherWind HumidityBarometerVisibility
8:00 PM
Jan 27
8 °FFrigid.10 mph51%30.03 "HgN/A
7:00 PM9 °FFrigid.10 mph55%30.03 "HgN/A
6:00 PM10 °FFrigid.6 mph55%30.03 "HgN/A
5:00 PM10 °FFrigid.8 mph55%30.02 "HgN/A
4:00 PM10 °FCold.10 mph52%30.03 "HgN/A
3:00 PM11 °FCold.8 mph53%30.04 "HgN/A
2:00 PM9 °FFrigid.8 mph54%30.05 "HgN/A
1:00 PM7 °FFrigid.8 mph55%30.07 "HgN/A
12:00 PM6 °FFrigid.9 mph54%30.09 "HgN/A
11:00 AM6 °FFrigid.9 mph57%30.13 "HgN/A
10:00 AM4 °FFrigid.9 mph63%30.14 "HgN/A
9:00 AM3 °FFrigid.9 mph68%30.14 "HgN/A
8:00 AM2 °FFrigid.7 mph79%30.16 "HgN/A
7:00 AM3 °FFrigid.8 mph73%30.15 "HgN/A
6:00 AM6 °FFrigid.13 mph72%30.16 "HgN/A
5:00 AM7 °FFrigid.14 mph75%30.14 "HgN/A
4:00 AM6 °FFrigid.13 mph76%30.15 "HgN/A
3:00 AM6 °FFrigid.14 mph61%30.18 "HgN/A
2:00 AM5 °FFrigid.10 mph75%30.20 "HgN/A
1:00 AM4 °FFrigid.13 mph82%30.20 "HgN/A
12:00 AM4 °FFrigid.12 mph79%30.22 "HgN/A
11:00 PM
Jan 26
3 °FFrigid.10 mph80%30.24 "HgN/A
10:00 PM2 °FFrigid.9 mph78%30.25 "HgN/A
9:00 PM2 °FFrigid.6 mph71%30.26 "HgN/A
Weather by CustomWeather, © 2014

See weather overviewHow to use our weather pages